Location: *
(35.2348°S, 91.3916°E)
Time: 03:10:31
(UTC+00:00)

Cosmos 1805 - Pass Details

Date: 23 October 2019
Orbit: 526 x 531 km, 82.5° (Epoch: 16 November)

Event Time Altitude Azimuth Distance (km) Brightness Sun altitude
Exits shadow 22:06:17 13° 324° (NW) 1,614 5.2 -11.5°
Maximum altitude 22:09:27 36° 259° (W) 870 3.9 -10.9°
Drops below altitude 10° 22:13:08 10° 192° (SSW) 1,810 6.1 -10.2°
Sets 22:15:27 0° 183° (S) 2,709 7.1 -9.7°
